This demonstration page uses our WeatherBlox Daily Observations layout. Learn more.

Left ArrowRight Arrow

Hourly Observations for July 30, 2018

Temp ( °F °C ) Dew Point ( °F °C ) Humidity (%) Winds ( mph kmh ) Pressure ( in mb ) Visibility ( mi km ) Precip ( " mm )
12:53 am 00:53 Clear 83 28.3 50 10 32 32 SE 8 13 29.83 1010 10 16 0.00 0.00
1:53 am 01:53 Clear 80 26.7 50 10 35 35 SSE 7 11 29.82 1010 10 16 0.00 0.00
2:53 am 02:53 Clear 77 25 50 10 39 39 SSE 7 11 29.82 1010 10 16 0.00 0.00
3:53 am 03:53 Clear 77 25 50 10 39 39 SSE 8 13 29.81 1010 10 16 0.00 0.00
4:53 am 04:53 Clear 79 26.1 51 10.6 38 38 SE 9 15 29.81 1010 10 16 0.00 0.00
5:53 am 05:53 Clear 77 25 51 10.6 40 40 SE 6 9 29.81 1010 10 16 0.00 0.00
6:53 am 06:53 Clear 76 24.4 51 10.6 42 42 Calm 29.83 1010 10 16 0.00 0.00
7:53 am 07:53 Sunny 77 25 53 11.7 43 43 ESE 10 17 29.84 1010 10 16 0.00 0.00
8:53 am 08:53 Sunny 81 27.2 55 12.8 41 41 SE 12 19 29.85 1011 10 16 0.00 0.00
9:53 am 09:53 Partly Cloudy 83 28.3 56 13.3 40 40 E 10 17 29.88 1012 10 16 0.00 0.00
10:53 am 10:53 Sunny 86 30 57 13.9 37 37 E 13 20 29.89 1012 10 16 0.00 0.00
11:53 am 11:53 Sunny 91 32.8 58 14.4 33 33 SE 10 17 29.89 1012 10 16 0.00 0.00
12:53 pm 12:53 Sunny 95 35 59 15 30 30 ESE 9 15 29.87 1012 10 16 0.00 0.00
1:53 pm 13:53 Sunny 99 37.2 56 13.3 24 24 ESE 12 19 29.85 1011 10 16 0.00 0.00
2:53 pm 14:53 Sunny 100 37.8 52 11.1 20 20 VRB 7 11 29.83 1010 10 16 0.00 0.00
3:53 pm 15:53 Sunny 101 38.3 52 11.1 19 19 SE 9 15 29.81 1009 10 16 0.00 0.00
4:53 pm 16:53 Sunny 99 37.2 53 11.7 21 21 SSE 7 11 29.79 1009 10 16 0.00 0.00
5:53 pm 17:53 Mostly Sunny 100 37.8 53 11.7 21 21 ESE 7 11 29.78 1009 10 16 0.00 0.00
6:53 pm 18:53 Sunny 100 37.8 53 11.7 21 21 SE 14 22 29.77 1008 10 16 0.00 0.00
7:53 pm 19:53 Mostly Sunny 97 36.1 56 13.3 25 25 ESE 15 24 29.78 1008 10 16 0.00 0.00
8:53 pm 20:53 Clear 92 33.3 61 16.1 36 36 E 18 30 29.81 1010 10 16 0.00 0.00
9:53 pm 21:53 Clear 90 32.2 61 16.1 38 38 E 20 31 29.84 1011 10 16 0.00 0.00
10:53 pm 22:53 Mostly Cloudy 89 31.7 61 16.1 39 39 E 17 28 29.89 1012 10 16 0.00 0.00
11:53 pm 23:53 Mostly Clear 81 27.2 62 16.7 53 53 E 21 33 29.92 1013 10 16 0.00 0.00

Powered by AerisWeather